When you browse on this site, cookies collect data to enhance your experience and personalize the content and advertising you see.
Visit our Privacy Policy to learn more. By continuing to use the site, you agree to this use of cookies and data.
  • In Spain
  • List of Countries
  • For 7 days
  • Water Temperature
  • Weather Map
  • Weather Widgets
  • user-avatar
    Login

    Hourly Weather Ali Bayramli

    Today, 6 June, Saturday

    Time Temperature Precipitation Wind Pressure Humidity
    00:00 +23°C° 0 mm 4 mps 761 mmHg 58%
    01:00 +22°C° 0 mm 3 mps 761 mmHg 60%
    02:00 +22°C° 0 mm 3 mps 761 mmHg 62%
    03:00 +22°C° 0 mm 1 mps 761 mmHg 63%
    04:00 +21°C° 0 mm 2 mps 762 mmHg 61%
    05:00 +23°C° 0 mm 2 mps 762 mmHg 58%
    06:00 +24°C° 0 mm 2 mps 762 mmHg 56%
    07:00 +25°C° 0.1 mm 2 mps 762 mmHg 52%
    08:00 +26°C° 0.1 mm 2 mps 762 mmHg 48%
    09:00 +28°C° 0.1 mm 2 mps 762 mmHg 43%
    10:00 +29°C° 0.1 mm 2 mps 762 mmHg 42%
    11:00 +29°C° 0.1 mm 2 mps 762 mmHg 40%
    12:00 +30°C° 0.1 mm 3 mps 762 mmHg 38%
    13:00 +30°C° 0.1 mm 3 mps 762 mmHg 37%
    14:00 +30°C° 0.1 mm 3 mps 762 mmHg 37%
    15:00 +30°C° 0.1 mm 3 mps 761 mmHg 36%
    16:00 +29°C° 0.1 mm 4 mps 761 mmHg 36%
    17:00 +29°C° 0.1 mm 4 mps 761 mmHg 37%
    18:00 +29°C° 0.1 mm 5 mps 761 mmHg 37%
    19:00 +27°C° 0.2 mm 4 mps 761 mmHg 40%
    20:00 +26°C° 0.2 mm 4 mps 761 mmHg 44%
    21:00 +24°C° 0.2 mm 3 mps 761 mmHg 48%
    22:00 +24°C° 0 mm 3 mps 761 mmHg 51%
    23:00 +23°C° 0 mm 2 mps 761 mmHg 54%

    Tomorrow, 7 June, Sunday

    Time Temperature Precipitation Wind Pressure Humidity
    00:00 +21°C° 0 mm 2 mps 761 mmHg 57%
    01:00 +21°C° 0 mm 2 mps 761 mmHg 59%
    02:00 +21°C° 0 mm 1 mps 761 mmHg 61%
    03:00 +21°C° 0 mm 1 mps 761 mmHg 63%
    04:00 +22°C° 0 mm 1 mps 761 mmHg 59%
    05:00 +23°C° 0 mm 1 mps 761 mmHg 56%
    06:00 +24°C° 0 mm 1 mps 761 mmHg 52%
    07:00 +25°C° 0 mm 1 mps 761 mmHg 46%
    08:00 +27°C° 0 mm 2 mps 761 mmHg 41%
    09:00 +29°C° 0 mm 3 mps 761 mmHg 35%
    10:00 +30°C° 0 mm 3 mps 761 mmHg 33%
    11:00 +31°C° 0 mm 2 mps 760 mmHg 31%
    12:00 +32°C° 0 mm 2 mps 760 mmHg 29%
    13:00 +34°C° 0 mm 2 mps 760 mmHg 27%
    14:00 +34°C° 0 mm 3 mps 760 mmHg 26%
    15:00 +35°C° 0 mm 3 mps 759 mmHg 24%
    16:00 +33°C° 0 mm 4 mps 759 mmHg 29%
    17:00 +32°C° 0 mm 5 mps 759 mmHg 34%
    18:00 +29°C° 0 mm 6 mps 759 mmHg 38%
    19:00 +28°C° 0 mm 5 mps 759 mmHg 43%
    20:00 +26°C° 0 mm 5 mps 759 mmHg 47%
    21:00 +25°C° 0 mm 4 mps 759 mmHg 52%
    22:00 +24°C° 0 mm 3 mps 759 mmHg 55%
    23:00 +24°C° 0 mm 2 mps 759 mmHg 58%

    Day after tomorrow, 8 June, Monday

    Time Temperature Precipitation Wind Pressure Humidity
    00:00 +23°C° 0 mm 2 mps 758 mmHg 61%
    01:00 +23°C° 0 mm 2 mps 758 mmHg 61%
    02:00 +23°C° 0 mm 1 mps 758 mmHg 62%
    03:00 +22°C° 0 mm 1 mps 758 mmHg 62%
    04:00 +23°C° 0 mm 2 mps 758 mmHg 59%
    05:00 +24°C° 0 mm 2 mps 758 mmHg 55%
    06:00 +25°C° 0 mm 2 mps 758 mmHg 52%
    07:00 +27°C° 0 mm 3 mps 758 mmHg 45%
    08:00 +29°C° 0 mm 3 mps 758 mmHg 38%
    09:00 +32°C° 0 mm 4 mps 758 mmHg 32%
    10:00 +33°C° 0 mm 4 mps 758 mmHg 27%
    11:00 +34°C° 0 mm 4 mps 758 mmHg 23%
    12:00 +35°C° 0 mm 4 mps 757 mmHg 19%
    13:00 +35°C° 0 mm 5 mps 757 mmHg 19%
    14:00 +35°C° 0 mm 6 mps 757 mmHg 20%
    15:00 +35°C° 0 mm 7 mps 756 mmHg 20%
    16:00 +34°C° 0 mm 6 mps 756 mmHg 25%
    17:00 +32°C° 0 mm 6 mps 756 mmHg 30%
    18:00 +30°C° 0 mm 6 mps 756 mmHg 35%
    19:00 +28°C° 0 mm 5 mps 756 mmHg 42%
    20:00 +26°C° 0 mm 4 mps 757 mmHg 49%
    21:00 +24°C° 0 mm 3 mps 757 mmHg 56%
    22:00 +24°C° 0 mm 3 mps 757 mmHg 59%
    23:00 +23°C° 0 mm 2 mps 757 mmHg 62%

    9 June, Tuesday

    Time Temperature Precipitation Wind Pressure Humidity
    00:00 +23°C° 0 mm 2 mps 757 mmHg 64%
    01:00 +21°C° 0 mm 2 mps 756 mmHg 65%
    02:00 +21°C° 0 mm 2 mps 756 mmHg 65%
    03:00 +21°C° 0 mm 2 mps 756 mmHg 65%
    04:00 +23°C° 0 mm 2 mps 756 mmHg 62%
    05:00 +24°C° 0 mm 2 mps 757 mmHg 58%
    06:00 +25°C° 0 mm 2 mps 757 mmHg 54%
    07:00 +27°C° 0 mm 3 mps 757 mmHg 47%
    08:00 +28°C° 0 mm 3 mps 757 mmHg 41%
    09:00 +30°C° 0 mm 4 mps 757 mmHg 35%
    10:00 +33°C° 0 mm 5 mps 757 mmHg 31%
    11:00 +34°C° 0 mm 5 mps 757 mmHg 26%
    12:00 +35°C° 0 mm 5 mps 757 mmHg 22%
    13:00 +36°C° 0 mm 5 mps 757 mmHg 21%
    14:00 +36°C° 0 mm 6 mps 757 mmHg 21%
    15:00 +36°C° 0 mm 6 mps 756 mmHg 20%
    16:00 +34°C° 0 mm 5 mps 756 mmHg 22%
    17:00 +33°C° 0 mm 5 mps 756 mmHg 24%
    18:00 +32°C° 0 mm 5 mps 756 mmHg 26%
    19:00 +29°C° 0 mm 4 mps 756 mmHg 29%
    20:00 +28°C° 0 mm 3 mps 756 mmHg 33%
    21:00 +27°C° 0 mm 2 mps 756 mmHg 36%
    22:00 +26°C° 0 mm 2 mps 756 mmHg 36%
    23:00 +26°C° 0 mm 2 mps 756 mmHg 36%

    10 June, Wednesday

    Time Temperature Precipitation Wind Pressure Humidity
    00:00 +26°C° 0 mm 2 mps 756 mmHg 37%
    01:00 +25°C° 0.1 mm 2 mps 756 mmHg 40%
    02:00 +24°C° 0.1 mm 1 mps 756 mmHg 42%
    03:00 +24°C° 0.1 mm 1 mps 756 mmHg 45%
    04:00 +25°C° 0 mm 1 mps 756 mmHg 43%
    05:00 +26°C° 0 mm 1 mps 756 mmHg 41%
    06:00 +26°C° 0 mm 1 mps 756 mmHg 38%
    07:00 +28°C° 0 mm 1 mps 757 mmHg 35%
    08:00 +30°C° 0 mm 1 mps 757 mmHg 31%
    09:00 +30°C° 0 mm 0 mps 757 mmHg 27%
    10:00 +34°C° 0 mm 1 mps 757 mmHg 24%
    11:00 +36°C° 0 mm 3 mps 757 mmHg 20%
    12:00 +38°C° 0 mm 4 mps 757 mmHg 16%
    13:00 +38°C° 0 mm 4 mps 757 mmHg 15%
    14:00 +40°C° 0 mm 5 mps 756 mmHg 14%
    15:00 +40°C° 0 mm 6 mps 756 mmHg 13%
    16:00 +38°C° 0 mm 6 mps 756 mmHg 15%
    17:00 +36°C° 0 mm 6 mps 755 mmHg 17%
    18:00 +34°C° 0 mm 5 mps 755 mmHg 19%
    19:00 +32°C° 0 mm 4 mps 756 mmHg 24%
    20:00 +30°C° 0 mm 3 mps 756 mmHg 29%
    21:00 +28°C° 0 mm 3 mps 756 mmHg 35%
    22:00 +27°C° 0 mm 2 mps 756 mmHg 36%
    23:00 +26°C° 0 mm 2 mps 756 mmHg 37%

    11 June, Thursday

    Time Temperature Precipitation Wind Pressure Humidity
    00:00 +26°C° 0 mm 2 mps 756 mmHg 38%
    01:00 +25°C° 0 mm 2 mps 756 mmHg 39%
    02:00 +25°C° 0 mm 1 mps 756 mmHg 39%
    03:00 +24°C° 0 mm 1 mps 755 mmHg 40%
    04:00 +25°C° 0 mm 1 mps 756 mmHg 37%
    05:00 +26°C° 0 mm 1 mps 756 mmHg 35%
    06:00 +27°C° 0 mm 1 mps 756 mmHg 32%
    07:00 +29°C° 0 mm 2 mps 756 mmHg 28%
    08:00 +32°C° 0 mm 2 mps 756 mmHg 24%
    09:00 +35°C° 0 mm 3 mps 756 mmHg 20%
    10:00 +36°C° 0 mm 4 mps 756 mmHg 18%
    11:00 +38°C° 0 mm 6 mps 756 mmHg 16%
    12:00 +39°C° 0 mm 7 mps 756 mmHg 15%
    13:00 +38°C° 0 mm 7 mps 755 mmHg 16%
    14:00 +38°C° 0 mm 7 mps 755 mmHg 16%
    15:00 +36°C° 0 mm 7 mps 754 mmHg 17%
    16:00 +35°C° 0 mm 7 mps 754 mmHg 18%
    17:00 +34°C° 0 mm 6 mps 754 mmHg 19%
    18:00 +34°C° 0 mm 5 mps 754 mmHg 20%
    19:00 +32°C° 0 mm 4 mps 754 mmHg 23%
    20:00 +29°C° 0 mm 3 mps 755 mmHg 26%
    21:00 +28°C° 0 mm 2 mps 755 mmHg 29%
    22:00 +27°C° 0 mm 2 mps 754 mmHg 29%
    23:00 +27°C° 0 mm 2 mps 754 mmHg 30%
    Show more